www.pogodaiklimat.ru

Погода и климат >> Архив погоды >> Австралия >> Южная Австралия >> Марри


ПОГОДА в Марри

  • Прогноз погоды в Марри
  • Монитор погоды в Марри

АРХИВ ПОГОДЫ в Марри

Время (UTC), дата Ветер
(напр.,м/с)
 
Видим.   Явления Облачность Т
(С)
Тd
(С)
f
(%)
Тe
(С)
Тes
(С)
Комфортность P
(гПа)
Po
(гПа)
Тmin
(С)
Tmax
(С)
R
(мм)
R24
(мм)
S
(см)
19 16.08 ЮВ 3 н/о н/о +12.6 +0.4 43 +11 +11 1017.1 1011.0
20 16.08 ЮВ 4 н/о н/о +13.3 +3.7 52 +12 +12 1017.5 1011.4
21 16.08 ЮВ 3 н/о н/о +11.7 +2.7 54 +11 +11 1017.9 1011.8
22 16.08 ЮВ 4 н/о н/о +11.4 +3.4 58 +10 +10 1018.2 1012.1
23 16.08 ЮВ 4 н/о н/о +15.5 +2.3 41 +15 +15 1018.5 1012.4
00 17.08 СВ 4 н/о н/о +18.8 -1.1 26 +19 +19 1018.2 1012.1
01 17.08 СВ 6 н/о н/о +21.7 -1.6 21 +21 +21 комфорт 1017.9 1011.8
02 17.08 С 8 н/о н/о +24.1 -4.1 15 +22 +22 комфорт 1017.1 1011.0 +11.4
03 17.08 С 9 н/о н/о +25.5 -3.9 14 +23 +23 комфорт 1016.3 1010.2
04 17.08 С 9 н/о н/о +26.0 -6.7 11 +23 +23 комфорт 1015.1 1009.0
05 17.08 С 8 н/о н/о +27.2 -8.4 9 +24 +24 комфорт 1014.1 1008.0
06 17.08 С 8 н/о н/о +27.6 -9.6 8 +24 +24 комфорт 1013.5 1007.4
07 17.08 С 8 н/о н/о +27.4 -9.7 8 +24 +24 комфорт 1012.9 1006.9
08 17.08 С 7 н/о н/о +26.2 -9.1 9 +23 +23 комфорт 1013.1 1007.1
09 17.08 С 4 н/о н/о +22.3 -9.5 11 +20 +20 1013.1 1007.1
10 17.08 С 3 н/о н/о +20.1 -9.1 13 +20 +20 1013.8 1007.7
11 17.08 С 4 н/о н/о +17.8 -9.1 15 +18 +18 1013.6 1007.5
12 17.08 СВ 5 н/о н/о +17.0 -8.2 17 +16 +16 1013.1 1007.1
13 17.08 СВ 6 н/о н/о +17.2 -8.0 17 +17 +17 1012.3 1006.3
14 17.08 С 4 н/о н/о +14.8 -8.6 19 +14 +14 1011.9 1005.9 +28.1
15 17.08 СЗ 7 н/о н/о +18.3 -7.9 16 +18 +18 1012.8 1006.8
02 18.08 ЮЗ 10 н/о н/о +17.7 -1.5 27 +16 +16 1018.8 1012.7
03 18.08 З 11 н/о н/о +18.2 -2.1 25 +17 +17 1018.7 1012.6
04 18.08 З 11 н/о н/о +18.5 -2.4 24 +17 +17 1018.2 1012.1
05 18.08 З 11 н/о н/о +19.0 -3.2 22 +18 +18 1018.0 1011.9
06 18.08 З 12 н/о н/о +18.8 -5.3 19 +18 +18 1018.1 1012.0
07 18.08 З 11 н/о н/о +18.2 -6.5 18 +17 +17 1018.7 1012.6
08 18.08 З 11 н/о н/о +17.0 -4.8 22 +15 +15 1019.8 1013.7
09 18.08 ЮЗ 9 н/о н/о +15.9 -4.1 25 +14 +14 1020.9 1014.8
10 18.08 ЮЗ 11 н/о н/о +14.9 +0.7 38 +12 +12 1022.0 1015.9
11 18.08 ЮЗ 12 н/о н/о +13.1 +0.8 43 +10 +10 1023.2 1017.1
12 18.08 ЮЗ 12 н/о н/о +11.9 +1.8 50 +8 +8 1024.2 1018.1
13 18.08 ЮЗ 10 н/о н/о +11.2 +2.2 54 +8 +8 1024.8 1018.7
14 18.08 ЮЗ 8 н/о н/о +10.0 +1.6 56 +6 +6 1025.5 1019.4
15 18.08 ЮЗ 6 н/о н/о +9.1 +2.2 62 +6 +6 1026.1 1020.0
16 18.08 ЮЗ 6 н/о н/о +8.3 +2.1 65 +5 +5 1026.4 1020.3
17 18.08 ЮЗ 5 н/о н/о +7.1 +1.6 68 +4 +4 1026.9 1020.8
18 18.08 ЮЗ 5 н/о н/о +6.5 +1.6 71 +2 +2 1027.0 1020.9
19 18.08 ЮЗ 5 н/о н/о +5.8 +1.5 74 +2 +2 1027.2 1021.1
20 18.08 ЮЗ 6 н/о н/о +5.7 +2.0 77 +1 +1 1028.0 1021.9
21 18.08 ЮЗ 5 н/о н/о +5.4 +2.1 79 +1 +1 1029.0 1022.9
22 18.08 ЮЗ 5 н/о н/о +6.1 +2.7 79 +2 +2 1030.4 1024.2
23 18.08 Ю 8 н/о н/о +8.9 +3.1 67 +5 +5 1031.7 1025.5
00 19.08 Ю 7 н/о н/о +10.9 +2.2 55 +8 +8 1032.1 1025.9
01 19.08 Ю 8 н/о н/о +13.1 +1.1 44 +11 +11 1032.4 1026.2
02 19.08 Ю 9 н/о н/о +14.1 -2.3 32 +12 +12 1031.5 1025.3
03 19.08 Ю 9 н/о н/о +15.1 -1.5 32 +13 +13 1031.1 1024.9
04 19.08 Ю 8 н/о н/о +16.4 -2.6 27 +15 +15 1030.3 1024.1
05 19.08 Ю 6 н/о н/о +15.7 -3.2 27 +14 +14 1030.2 1024.0
06 19.08 Ю 8 н/о н/о +16.2 -3.3 26 +15 +15 1029.7 1023.6
07 19.08 Ю 8 н/о н/о +15.6 -2.8 28 +14 +14 1030.2 1024.0
08 19.08 Ю 8 н/о н/о +14.8 -2.1 31 +13 +13 1031.0 1024.8
09 19.08 Ю 6 н/о н/о +13.2 -2.7 33 +11 +11 1031.7 1025.5
10 19.08 Ю 4 н/о н/о +11.1 -3.0 37 +9 +9 1032.5 1026.3
11 19.08 Ю 4 н/о н/о +9.8 -2.8 41 +8 +8 1032.9 1026.7
12 19.08 Ю 4 н/о н/о +9.0 -2.6 44 +7 +7 1033.4 1027.2
13 19.08 Ю 4 н/о н/о +7.7 -3.5 45 +5 +5 1033.6 1027.4
14 19.08 Ю 5 н/о н/о +8.7 -1.7 48 +6 +6 1033.4 1027.2 +16.9
15 19.08 Ю 4 н/о н/о +5.3 -3.7 52 +2 +2 1033.2 1027.0
16 19.08 Ю 4 н/о н/о +4.2 -4.3 54 +1 +1 1033.1 1026.9
17 19.08 ЮВ 3 н/о н/о +3.3 -4.6 56 0 0 1033.0 1026.8
18 19.08 Ю 4 н/о н/о +3.1 -4.3 58 -1 -1 1032.9 1026.7
19 19.08 Ю 4 н/о н/о +2.2 -5.4 57 -2 -2 1033.0 1026.8
20 19.08 ЮВ 3 н/о н/о +2.2 -4.7 60 -1 -1 1033.8 1027.6
21 19.08 ЮВ 3 н/о н/о +1.7 -5.4 59 -2 -2 1034.6 1028.4
22 19.08 Ю 2 н/о н/о +2.9 -5.0 56 0 0 1035.3 1029.1
23 19.08 штиль 0 н/о н/о +9.5 -0.9 48 +9 +9 1036.1 1029.9
00 20.08 Ю 5 н/о н/о +13.3 +3.1 50 +12 +12 1036.6 1030.4
01 20.08 ЮВ 5 н/о н/о +14.5 +2.4 44 +13 +13 1036.5 1030.3
02 20.08 ЮВ 4 н/о н/о +16.0 +2.8 41 +15 +15 1035.8 1029.6 +1.5
03 20.08 Ю 4 н/о н/о +16.7 +2.0 37 +16 +16 1034.9 1028.7
04 20.08 Ю 4 н/о н/о +17.7 +2.5 36 +18 +18 1033.6 1027.4
05 20.08 ЮЗ 4 н/о н/о +18.7 +1.7 32 +19 +19 1032.6 1026.4
06 20.08 ЮЗ 6 н/о н/о +18.5 +0.6 30 +18 +18 1032.0 1025.8
07 20.08 Ю 6 н/о н/о +18.6 +1.6 32 +18 +18 1031.7 1025.5
08 20.08 Ю 6 н/о н/о +17.2 +2.4 37 +16 +16 1031.9 1025.7
09 20.08 Ю 5 н/о н/о +15.4 +1.9 40 +14 +14 1032.2 1026.0
10 20.08 Ю 4 н/о н/о +13.1 +1.5 45 +12 +12 1032.3 1026.1
11 20.08 Ю 4 н/о н/о +11.7 +0.8 47 +10 +10 1032.6 1026.4
12 20.08 Ю 5 н/о н/о +10.6 +0.1 48 +8 +8 1032.7 1026.5
13 20.08 Ю 5 н/о н/о +10.0 +0.6 52 +7 +7 1032.4 1026.2
14 20.08 Ю 3 н/о н/о +10.4 +1.5 54 +9 +9 1032.3 1026.1 +19.5
15 20.08 ЮВ 3 н/о н/о +7.6 -0.4 57 +6 +6 1032.1 1025.9
16 20.08 ЮВ 4 н/о н/о +6.7 -0.7 59 +4 +4 1031.5 1025.3
17 20.08 Ю 3 н/о н/о +5.3 -1.6 61 +2 +2 1031.1 1024.9
18 20.08 Ю 3 н/о н/о +6.6 +0.5 65 +4 +4 1030.8 1024.6
19 20.08 Ю 4 н/о н/о +6.9 +2.2 72 +4 +4 1030.7 1024.5
20 20.08 ЮВ 1 н/о н/о +4.0 -1.2 69 +4 +4 1031.2 1025.0
21 20.08 Ю 2 н/о н/о +5.4 +1.5 76 +3 +3 1031.3 1025.1
22 20.08 ЮЗ 2 н/о н/о +5.8 +1.7 75 +3 +3 1032.1 1025.9
23 20.08 Ю 3 н/о н/о +11.7 +6.4 70 +10 +10 1032.8 1026.6
00 21.08 Ю 8 н/о н/о +14.1 +6.7 61 +12 +12 1032.8 1026.6
01 21.08 Ю 6 н/о н/о +15.3 +6.6 56 +14 +14 1032.7 1026.5
02 21.08 Ю 4 н/о н/о +16.9 +6.1 49 +17 +17 1032.0 1025.8 +3.5
03 21.08 ЮЗ 5 н/о н/о +18.4 +4.9 41 +18 +18 1030.7 1024.5
04 21.08 ЮЗ 5 н/о н/о +20.6 +2.4 30 +21 +21 комфорт 1029.4 1023.3
05 21.08 Ю 6 н/о н/о +20.4 +2.3 30 +21 +21 комфорт 1028.7 1022.6
06 21.08 ЮЗ 6 н/о н/о +20.7 +1.6 28 +21 +21 комфорт 1028.3 1022.2
07 21.08 Ю 7 н/о н/о +20.5 +2.3 30 +21 +21 комфорт 1027.8 1021.7
08 21.08 Ю 8 н/о н/о +19.2 +3.4 35 +19 +19 1028.2 1022.1
09 21.08 Ю 6 н/о н/о +17.4 +3.3 39 +17 +17 1028.4 1022.3
10 21.08 ЮЗ 4 н/о н/о +15.4 +3.5 45 +15 +15 1028.4 1022.3
11 21.08 ЮЗ 5 н/о н/о +13.6 +3.1 49 +12 +12 1028.7 1022.6
12 21.08 Ю 5 н/о н/о +13.2 +3.3 51 +12 +12 1028.6 1022.5
13 21.08 ЮЗ 4 н/о н/о +11.6 +2.9 55 +10 +10 1028.3 1022.2
14 21.08 ЮВ 3 н/о н/о +10.2 +2.1 57 +8 +8 1028.4 1022.3 +21.6
15 21.08 ЮВ 3 н/о н/о +8.8 +1.5 60 +7 +7 1028.3 1022.2
16 21.08 Ю 2 н/о н/о +8.0 +1.6 64 +6 +6 1028.3 1022.2
17 21.08 штиль 0 н/о н/о +7.5 +2.0 68 +7 +7 1028.1 1022.0
18 21.08 ЮВ 2 н/о н/о +6.4 +0.3 65 +4 +4 1028.0 1021.9
19 21.08 ЮВ 3 н/о н/о +5.0 -1.4 63 +2 +2 1027.9 1021.8
20 21.08 ЮВ 4 н/о н/о +4.8 -0.8 67 +1 +1 1028.1 1022.0
21 21.08 ЮВ 3 н/о н/о +4.8 +0.8 75 +1 +1 1028.7 1022.6
22 21.08 ЮВ 3 н/о н/о +6.1 +2.4 77 +3 +3 1029.4 1023.3
23 21.08 ЮВ 2 н/о н/о +10.8 +4.7 66 +10 +10 1030.1 1023.9
00 22.08 ЮВ 5 н/о н/о +15.2 +5.7 53 +14 +14 1030.3 1024.1
01 22.08 ЮВ 5 н/о н/о +17.6 +3.9 40 +17 +17 1030.0 1023.8
02 22.08 Ю 3 н/о н/о +19.0 +2.8 34 +19 +19 1029.2 1023.1 +3.9
03 22.08 В 2 н/о н/о +19.9 +1.8 30 +21 +21 комфорт 1028.1 1022.0
04 22.08 В 2 н/о н/о +20.8 +1.1 27 +22 +22 комфорт 1027.1 1021.0
05 22.08 З 2 н/о н/о +21.9 +1.0 25 +21 +21 комфорт 1026.2 1020.1
06 22.08 ЮЗ 1 н/о н/о +22.6 +1.0 24 +22 +22 комфорт 1025.6 1019.5
07 22.08 ЮВ 3 н/о н/о +22.4 +1.4 25 +22 +22 комфорт 1025.3 1019.2
08 22.08 Ю 5 н/о н/о +21.4 +1.1 26 +21 +21 комфорт 1025.4 1019.3
09 22.08 Ю 5 н/о н/о +18.7 +0.3 29 +19 +19 1025.7 1019.6
10 22.08 Ю 5 н/о н/о +16.7 +1.2 35 +16 +16 1026.1 1020.0
11 22.08 Ю 5 н/о н/о +15.3 +1.1 38 +14 +14 1026.4 1020.3
12 22.08 Ю 4 н/о н/о +13.2 +0.6 42 +12 +12 1026.8 1020.7
13 22.08 Ю 4 н/о н/о +11.1 -0.1 46 +9 +9 1026.5 1020.4
14 22.08 Ю 3 н/о н/о +9.8 -0.7 48 +8 +8 1026.2 1020.1 +23.1
15 22.08 СВ 4 н/о н/о +11.5 +1.2 49 +10 +10 1026.4 1020.3
16 22.08 В 2 н/о н/о +11.6 +1.8 51 +11 +11 1026.1 1020.0
17 22.08 СЗ 1 н/о н/о +8.0 -1.0 53 +9 +9 1026.0 1019.9
18 22.08 Ю 3 н/о н/о +7.1 -0.6 58 +5 +5 1025.7 1019.6
19 22.08 Ю 2 н/о н/о +5.4 -2.9 55 +3 +3 1025.5 1019.4
20 22.08 ЮВ 4 н/о н/о +4.5 -2.4 61 +1 +1 1025.3 1019.2
21 22.08 ЮВ 5 н/о н/о +4.8 -1.4 64 0 0 1025.8 1019.7
22 22.08 ЮВ 4 н/о н/о +5.7 -1.7 59 +2 +2 1026.7 1020.6
23 22.08 ЮВ 3 н/о н/о +10.2 +0.5 51 +8 +8 1027.3 1021.2
00 23.08 СВ 6 н/о н/о +15.7 +3.8 45 +15 +15 1027.0 1020.9
01 23.08 СВ 8 н/о н/о +18.1 +3.9 39 +17 +17 1026.3 1020.2
02 23.08 СВ 7 н/о н/о +19.7 +3.4 34 +20 +20 1025.2 1019.1 +4.1
03 23.08 С 6 н/о н/о +20.0 +2.8 32 +20 +20 1024.2 1018.1
04 23.08 СВ 6 н/о н/о +20.4 +2.3 30 +21 +21 комфорт 1022.7 1016.6
05 23.08 С 5 н/о н/о +21.2 +1.5 27 +21 +21 комфорт 1022.1 1016.0
06 23.08 С 4 н/о н/о +21.5 +1.7 27 +21 +21 комфорт 1021.5 1015.4
07 23.08 С 4 н/о н/о +21.6 +1.3 26 +21 +21 комфорт 1021.1 1015.0
08 23.08 С 3 н/о н/о +21.1 +0.9 26 +21 +21 комфорт 1021.1 1015.0
09 23.08 С 3 н/о н/о +18.3 0.0 29 +18 +18 1021.2 1015.1
10 23.08 СЗ 3 н/о н/о +16.0 -0.7 32 +16 +16 1021.4 1015.3
11 23.08 СВ 3 н/о н/о +14.0 -1.2 35 +13 +13 1021.5 1015.4
12 23.08 С 4 н/о н/о +13.2 -1.5 36 +12 +12 1021.6 1015.5
13 23.08 С 3 н/о н/о +11.6 -1.5 40 +10 +10 1021.1 1015.0
14 23.08 С 1 н/о н/о +8.9 -5.3 36 +9 +9 1021.0 1014.9 +22.4
15 23.08 В 3 н/о н/о +7.0 -6.3 38 +5 +5 1020.7 1014.6
16 23.08 штиль 0 н/о н/о +7.4 -3.7 45 +7 +7 1020.6 1014.5
17 23.08 З 3 н/о н/о +6.2 -4.3 47 +4 +4 1020.1 1014.0

 

Местоположение метеостанции Марри (Южная Австралия, Австралия): широта -29.66 долгота 138.06 высота над уровнем моря 51 м.

В архиве по умолчанию представлена погода в Марри за последнюю неделю. Архивные данные за месяц целиком и за предыдущие месяцы, начиная с января 2011 года, Вы можете получить, выбрав интересующий диапазон дат из раскрывающегося списка и нажав кнопку "Ввод!".


*Определитесь, кто Вы:
робот инопланетянин человек

Внимание! Время в таблицах - всемирное. Для получения местного времени необходимо прибавить поправку, которая равна 9.5 ч.

Смотрите также архив погоды в соседних городах и на ближайших метеорологических станциях:

Погода в Ли-Крике (Южная Австралия, Австралия) (110 км)
Погода в Олимпик Дэм (Южная Австралия, Австралия) (146 км)
Погода на Аэродроме Вумера (Южная Австралия, Австралия) (205 км)
Погода в Мумбе (Южная Австралия, Австралия) (271 км)
Погода в Порт Огаста (Южная Австралия, Австралия) (320 км)
Погода в Кубер-Педи (Южная Австралия, Австралия) (332 км)
Погода в Однадатте (Южная Австралия, Австралия) (346 км)
Погода в Юнте (Южная Австралия, Австралия) (354 км)
Погода в Таркуле (Южная Австралия, Австралия) (355 км)
Погода в Уиолле (Южная Австралия, Австралия) (383 км)

Пояснения к столбцам:

Ветер - указаны скорость ветра в м/с - средняя за 10 мин, порывы в срок и между сроками (в фигурных скобках) и направление, откуда дует ветер: С - северный, СВ - северо-восточный, В - восточный, ЮВ - юго-восточный, Ю - южный, ЮЗ - юго-западный, З - западный, СЗ - северо-западный.
Видимость - горизонтальная дальность видимости в метрах или километрах. При видимости от 1 до 10 км при отсутствии осадков обычно наблюдается дымка, при ухудшении видимости до 1 км и менее - туман. В сухую погоду видимость может ухудшаться дымом, пылью или мглою.
Явления - указаны атмосферные явления, наблюдавшиеся в срок или в последний час перед сроком; фигурными скобками обозначены явления, наблюдавшиеся между сроками (за 1-3 часа до срока); квадратными скобками обозначены град или гололедные отложения с указанием их диаметра в мм.
Облачность - указаны через наклонную черту общая и нижняя облачность в баллах и высота нижней границы облаков в метрах; квадратными скобками обозначены формы облаков: Ci - перистые, Cs - перисто-слоистые, Cc - перисто-кучевые, Ac - высококучевые, As - высокослоистые, Sc - слоисто-кучевые, Ns - слоисто-дождевые, Cu - кучевые, Cb - кучево-дождевые. Подробнее классификацию облаков см. в Атласе облаков (PDF).
T - Температура воздуха - температура, измеренная на высоте 2 м над землей.
Td - Температура точки росы - температура, при понижении до которой содержащийся в воздухе водяной пар достигнет насыщения.
f - Относительная влажность воздуха - влажноcть воздуха, измеренная на высоте 2 м над землей.
Te - Эффективная температура - температура, которую ощущает одетый по сезону человек в тени. Характеристика душности погоды. При расчете учитывается влияние влажности воздуха и скорости ветра на теплоощущения человека.
Tes - Эффективная температура на солнце - температура, которую ощущает человек, с поправкой на солнечный нагрев. Характеристика знойности погоды. Зависит от высоты солнца над горизонтом, облачности и скорости ветра. Ночью, в пасмурную погоду, а также при ветре 12 м/с и более поправка равна нулю.
P - Атмосферное давление - приведенное к уровню моря атмосферное давление.
Po - Атмосферное давление - измеренное на уровне метеостанции атмосферное давление.
Tmin - Минимальная температура - минимум температуры воздуха на высоте 2 м над землей.
Tmax - Максимальная температура - максимум температуры воздуха на высоте 2 м над землей.
R - Количество осадков - Количество выпавших осадков за период времени, мм. При наведении курсора мыши на число - период времени, за который выпало указанное количество осадков.
R24 - Количество осадков - Количество выпавших осадков за 24 часа, мм.
S - Снежный покров - Высота снежного покрова, см. При наведении курсора мыши на число - состояние снежного покрова и степень покрытия местности в баллах.